Location: Eaton Estates
(41.3089°N, 82.0057°W)
Time: 12:33:30
(UTC+00:00)

X-37B - Visible Passes

Search period start: 02 December 2022 00:00
Search period end: 12 December 2022 00:00
Orbit: 277 x 277 km, 45.0° (Epoch: 01 November)

Date Brightness Start Highest point End Pass type
(mag) Time Alt. Az. Time Alt. Az. Time Alt. Az.
05 Dec 2.5 23:30:21 10° S 23:31:11 14° SSE 23:31:11 14° SSE visible
06 Dec 1.6 23:30:18 10° SSW 23:32:02 25° S 23:32:02 25° S visible
07 Dec 0.5 23:30:41 10° SW 23:32:48 47° S 23:32:48 47° S visible
08 Dec 0.0 23:31:17 10° WSW 23:33:32 72° WSW 23:33:32 72° WSW visible
09 Dec 0.5 23:32:01 10° W 23:34:13 51° NW 23:34:13 51° NW visible
10 Dec 1.0 23:32:50 10° W 23:34:52 36° NNW 23:34:52 36° NNW visible
11 Dec 1.4 23:33:40 10° WNW 23:35:31 30° NNW 23:35:31 30° NNW visible
